Location: Silverdale
(47.6506°N, 122.6941°W)
Time: 03:34:23
(UTC+00:00)

Altair - Pass Details

Date: 07 October 2022
Orbit: 1501 x 1682 km, 47.2° (Epoch: 04 December)

Event Time Altitude Azimuth Distance (km) Brightness Sun altitude
Rises 18:57:50 0° 291° (WNW) 4,900 9.8 35.0°
Reaches altitude 10° 19:01:26 10° 282° (WNW) 3,927 9.5 35.2°
Maximum altitude 19:09:44 30° 226° (SW) 2,665 9.5 35.6°
Drops below altitude 10° 19:18:04 10° 170° (S) 3,929 11.0 35.9°
Sets 19:21:43 0° 160° (SSE) 4,903 11.1 36.0°
